Vorticity
13 11 13 11 3 3 3 4 7 8 12 10 16 21 24 22 23 27 21 15 13 26
8 7 5 1 0 10 9 5 7 8 13 17 29 18 21 21 6 4 6 18 -3 8
13 5 1 8 11 5 11 14 19 29 30 27 22 15 6 8 11 8 9 14 21 35
2 8 10 7 8 10 19 26 30 27 16 5 3 23 13 17 12 12 12 12 9 7
3 5 5 8 15 25 29 21 18 6 11 13 0 4 9 10 12 8 7 5 5 5
3 4 10 19 34 29 22 15 4 20 13 8 13 12 16 13 14 13 11 10 9 11
7 13 28 28 17 9 12 7 11 11 10 13 6 11 14 9 8 9 10 10 11 10
20 29 20 13 11 9 9 9 9 11 12 17 13 9 10 9 7 7 7 9 11 13
28 20 18 6 -1 9 8 10 16 17 12 9 10 9 8 7 8 8 11 13 14 14
8 11 13 13 16 10 9 12 10 11 12 11 9 9 10 11 9 11 12 14 14 12
12 10 10 9 6 6 13 10 11 12 9 8 9 10 11 11 11 13 12 13 12 15
10 9 9 9 17 14 10 13 11 8 8 10 10 12 12 12 11 11 11 12 16 16
15 7 13 14 9 14 10 8 7 10 13 12 13 17 13 11 10 10 12 13 19 20
20 11 9 11 9 7 7 10 13 13 13 14 13 11 11 12 12 12 13 21 22 13
Height
3085 3080 3075 3070 3064 3058 3051 3044 3038 3031 3025 3019 3013 3007 3003 2999 2997 2994 2993 2992 2990 2988
3075 3070 3064 3059 3053 3047 3040 3031 3024 3017 3010 3004 2998 2995 2991 2988 2987 2986 2984 2981 2980 2978
3064 3058 3053 3046 3039 3032 3024 3016 3009 3002 2997 2992 2988 2986 2983 2980 2977 2975 2973 2971 2968 2965
3056 3048 3040 3032 3024 3016 3008 3000 2995 2991 2988 2984 2981 2978 2974 2971 2969 2966 2963 2960 2958 2956
3042 3034 3026 3017 3008 3001 2995 2989 2986 2983 2980 2977 2973 2969 2966 2964 2961 2958 2955 2953 2951 2949
3028 3020 3011 3003 2997 2990 2985 2982 2979 2976 2973 2969 2965 2963 2959 2956 2953 2950 2947 2945 2942 2939
3015 3006 3000 2994 2989 2984 2979 2975 2971 2968 2965 2962 2958 2954 2950 2947 2944 2940 2938 2935 2932 2928
3004 2998 2992 2985 2981 2977 2972 2969 2965 2960 2956 2953 2949 2945 2942 2938 2934 2930 2927 2924 2920 2916
2995 2989 2985 2979 2975 2971 2967 2962 2957 2952 2948 2944 2940 2936 2932 2928 2924 2920 2916 2912 2908 2904
2989 2984 2980 2975 2969 2964 2959 2954 2949 2944 2940 2936 2932 2928 2923 2919 2914 2910 2906 2901 2896 2892
2982 2978 2973 2967 2962 2956 2951 2947 2942 2937 2933 2928 2924 2918 2914 2909 2905 2900 2895 2890 2886 2881
2975 2971 2965 2960 2954 2949 2944 2939 2935 2930 2925 2919 2914 2909 2903 2898 2894 2890 2885 2880 2877 2872
2968 2964 2958 2953 2947 2942 2937 2932 2927 2922 2916 2910 2904 2899 2894 2889 2884 2879 2875 2872 2868 2864
2962 2957 2952 2946 2940 2935 2930 2924 2919 2913 2907 2901 2896 2891 2886 2880 2875 2870 2866 2863 2860 2857